Location: Goettingen
(51.5300°N, 9.9433°E)
Time: 12:11:14
(UTC+02:00)

ISS - Visible Passes

Search period start: 24 May 2018 00:00
Search period end: 03 June 2018 00:00
Orbit: 402 x 407 km, 51.6° (Epoch: 24 May)

Date Brightness Start Highest point End Pass type
(mag) Time Alt. Az. Time Alt. Az. Time Alt. Az.
24 May -4.0 01:21:44 10° W 01:25:01 82° SSW 01:27:55 13° ESE visible
24 May -2.6 02:58:22 10° W 03:00:19 25° WSW 03:00:19 25° WSW visible
24 May -3.9 22:53:05 10° WSW 22:56:20 71° SSE 22:59:36 10° E visible
25 May -3.9 00:29:33 10° W 00:32:50 88° N 00:35:44 13° E visible
25 May -3.0 02:06:04 10° W 02:08:18 33° WSW 02:08:18 33° WSW visible
25 May -3.7 22:01:00 10° WSW 22:04:11 53° SSE 22:07:24 10° E visible
25 May -3.9 23:37:20 10° W 23:40:37 86° N 23:43:54 10° E visible
26 May -3.9 01:13:51 10° W 01:17:05 60° SSW 01:17:15 58° S visible
26 May -3.9 22:45:07 10° W 22:48:24 89° SSW 22:51:41 10° E visible
27 May -4.0 00:21:37 10° W 00:24:54 77° SSW 00:26:26 29° ESE visible
27 May -1.6 01:58:19 10° W 01:59:03 14° W 01:59:03 14° W visible
27 May -3.9 23:29:24 10° W 23:32:41 89° S 23:35:43 12° E visible
28 May -2.9 01:05:57 10° W 01:08:20 33° WSW 01:08:20 33° WSW visible
28 May -3.8 22:37:09 10° W 22:40:27 86° N 22:43:44 10° E visible
29 May -3.7 00:13:40 10° W 00:16:53 53° SSW 00:17:40 40° SSE visible
29 May -3.9 23:21:24 10° W 23:24:41 71° SSW 23:27:02 17° ESE visible
30 May -2.0 00:58:11 10° W 00:59:40 19° WSW 00:59:40 19° WSW visible
30 May -3.9 22:29:08 10° W 22:32:26 85° S 22:35:43 10° E visible
31 May -3.0 00:05:43 10° W 00:08:42 33° SSW 00:09:04 32° SSW visible
31 May -3.5 23:13:22 10° W 23:16:33 47° SSW 23:18:29 20° SE visible
01 Jun -1.2 00:50:57 10° WSW 00:51:07 10° WSW 00:51:07 10° WSW visible
01 Jun -3.8 22:21:04 10° W 22:24:19 65° SSW 22:27:34 10° ESE visible
01 Jun -2.2 23:57:58 10° W 00:00:23 19° SW 00:00:33 19° SSW visible
02 Jun -2.7 23:05:24 10° W 23:08:17 29° SSW 23:10:02 18° SSE visible
